DW8935 Weather Reports


time (UTC)temp
C
wind
direction
speed
KPH
gust
KPH
rain 1hr
cm
rain 24hr
cm
rain mn
cm
humidity
%
barometer
mb
20260504050001 20 360 17.7 40.2 0.00 0.00 0.00 53 1008.6
20260504044501 20 355 17.7 43.5 0.00 0.00 0.00 52 1008.5
20260504043112 20 326 14.5 38.6 0.00 0.00 0.00 52 1008.6
20260504041600 20 360 20.9 43.5 0.00 0.00 0.00 51 1008.6
20260504040114 20 360 12.9 40.2 0.00 0.00 0.00 52 1008.8
20260504034554 19 331 16.1 32.2 0.00 0.00 0.00 52 1008.8
20260504033053 19 309 17.7 40.2 0.00 0.00 0.00 52 1009.2
20260504031556 19 341 11.3 45.1 0.00 0.00 0.00 53 1009.4
20260504030049 19 343 14.5 27.4 0.00 0.00 0.00 56 1009.5
20260504024549 18 360 8.0 19.3 0.00 0.00 0.00 58 1009.7
20260504023057 18 327 11.3 27.4 0.00 0.00 0.00 57 1009.9
20260504021550 19 292 8.0 33.8 0.00 0.00 0.00 56 1010.0
20260504020046 19 348 12.9 29.0 0.00 0.00 0.00 56 1010.1
20260504014553 18 314 12.9 27.4 0.00 0.00 0.00 58 1010.3
20260504013039 18 314 8.0 33.8 0.00 0.00 0.00 58 1010.5
20260504011540 18 327 17.7 33.8 0.00 0.00 0.00 57 1010.6
20260504010037 18 290 12.9 30.6 0.00 0.00 0.00 58 1010.7
20260504004544 18 336 6.4 24.1 0.00 0.00 0.00 59 1010.7
20260504003036 18 335 6.4 32.2 0.00 0.00 0.00 60 1010.8
20260504001537 18 355 4.8 25.7 0.00 0.00 0.00 61 1010.7
20260504000032 17 346 9.7 29.0 0.00 0.00 0.00 62 1010.7
20260503234533 17 328 8.0 25.7 0.00 0.00 0.00 64 1010.8
20260503233026 16 298 8.0 22.5 0.00 0.00 0.00 66 1010.8
20260503231524 16 344 12.9 29.0 0.00 0.00 0.00 66 1011.0
20260503230022 15 11 8.0 19.3 0.00 0.00 0.00 66 1011.1
20260503224520 15 300 6.4 20.9 0.00 0.00 0.00 67 1011.2
20260503223019 15 336 3.2 11.3 0.00 0.00 0.00 68 1011.4
20260503221518 14 344 3.2 16.1 0.00 0.00 0.00 71 1011.4
20260503220018 14 348 3.2 11.3 0.00 0.00 0.00 73 1011.3
20260503214517 13 349 3.2 11.3 0.00 0.00 0.00 73 1011.2
20260503213019 13 5 3.2 11.3 0.00 0.00 0.00 73 1011.1
20260503211517 13 12 1.6 8.0 0.00 0.00 0.00 72 1011.1
20260503210016 13 351 3.2 8.0 0.00 0.00 0.00 73 1011.2
20260503204525 13 10 4.8 12.9 0.00 0.00 0.00 74 1011.0
20260503203016 13 355 3.2 11.3 0.00 0.00 0.00 76 1010.8
20260503201515 13 355 4.8 12.9 0.00 0.00 0.00 78 1010.7
20260503200018 12 22 3.2 9.7 0.00 0.00 0.00 79 1010.8
20260503194513 12 334 1.6 4.8 0.00 0.00 0.00 79 1010.8
20260503193029 12 27 0.0 0.0 0.00 0.00 0.00 79 1010.9
20260503191509 12 355 0.0 0.0 0.00 0.00 0.00 78 1011.1
20260503190009 12 22 0.0 0.0 0.00 0.00 0.00 77 1011.3
20260503184507 13 22 0.0 0.0 0.00 0.00 0.00 77 1011.4
20260503183008 13 18 0.0 0.0 0.00 0.00 0.00 76 1011.2
20260503181505 13 348 0.0 9.7 0.00 0.00 0.00 75 1011.4
20260503180006 13 5 3.2 11.3 0.00 0.00 0.00 76 1011.5
20260503174502 13 5 3.2 12.9 0.00 0.00 0.00 76 1011.5
20260503173004 13 360 3.2 11.3 0.00 0.00 0.00 76 1011.7
20260503171503 13 360 3.2 9.7 0.00 0.00 0.00 77 1011.7
20260503081525 15 345 0.0 4.8 0.00 0.00 0.00 84 1010.7
20260503071518 16 267 1.6 12.9 0.00 0.00 0.00 84 1010.2
20260503054514 17 316 1.6 12.9 0.00 0.00 0.00 85 1010.0
20260503053014 18 252 3.2 12.9 0.00 0.00 0.00 83 1009.9